This demonstration page uses our WeatherBlox Daily Observations layout. Learn more.

Left ArrowRight Arrow

Hourly Observations for November 3, 2016

Temp ( °F °C ) Dew Point ( °F °C ) Humidity (%) Winds ( mph kmh ) Pressure ( in mb ) Visibility ( mi km ) Precip ( " mm )
12:15 am 00:15 Clear 42 5.8 32 0 67 67 WNW 3 6 30.33 1027 10 16 0.00 0.00
12:35 am 00:35 Clear 41 4.9 32 -0.2 70 70 NW 5 7 30.36 1028 10 16 0.00 0.00
12:55 am 00:55 Clear 40 4.5 31 -0.5 70 70 NW 3 6 30.36 1028 10 16 0.00 0.00
1:15 am 01:15 Clear 40 4.4 31 -0.5 71 71 NW 5 7 30.36 1028 10 16 0.00 0.00
1:35 am 01:35 Clear 42 5.3 32 -0.2 68 68 WNW 3 6 30.33 1027 10 16 0.00 0.00
1:50 am 01:50 Clear 41 4.8 32 0 71 71 NW 5 7 30.36 1028 10 16 0.00 0.00
2:15 am 02:15 Clear 41 5 32 0 70 70 WNW 3 6 30.36 1028 10 16 0.00 0.00
2:35 am 02:35 Clear 41 5 32 0.1 71 71 W 5 7 30.39 1029 10 16 0.00 0.00
2:55 am 02:55 Clear 42 5.5 32 0 68 68 W 3 6 30.39 1029 10 16 0.00 0.00
3:15 am 03:15 Clear 42 5.4 32 0.1 69 69 W 6 9 30.39 1029 10 16 0.00 0.00
3:35 am 03:35 Clear 42 5.3 32 0.1 69 69 WNW 6 9 30.39 1029 10 16 0.00 0.00
3:55 am 03:55 Clear 41 5.1 32 0 70 70 Calm 30.39 1029 10 16 0.00 0.00
4:15 am 04:15 Clear 40 4.5 32 -0.1 72 72 WNW 5 7 30.39 1029 10 16 0.00 0.00
4:35 am 04:35 Clear 40 4.2 32 -0.2 73 73 WNW 5 7 30.39 1029 10 16 0.00 0.00
4:55 am 04:55 Clear 38 3.1 31 -0.5 77 77 WNW 5 7 30.39 1029 10 16 0.00 0.00
5:15 am 05:15 Clear 37 2.9 31 -0.5 79 79 WNW 3 6 30.39 1029 10 16 0.00 0.00
5:35 am 05:35 Clear 38 3.6 31 -0.3 76 76 Calm 30.39 1029 10 16 0.00 0.00
5:55 am 05:55 Clear 38 3.6 32 -0.1 77 77 Calm 30.39 1029 10 16 0.00 0.00
6:15 am 06:15 Clear 38 3.4 32 -0.1 78 78 WNW 3 6 30.42 1030 10 16 0.00 0.00
6:35 am 06:35 Clear 38 3.1 32 -0.1 80 80 Calm 30.42 1030 10 16 0.00 0.00
6:55 am 06:55 Clear 38 3.2 31 -0.5 77 77 Calm 30.42 1030 10 16 0.00 0.00
7:15 am 07:15 Clear 37 3 31 -0.8 76 76 Calm 30.42 1030 10 16 0.00 0.00
7:35 am 07:35 Clear 37 3 31 -0.4 79 79 Calm 30.42 1030 10 16 0.00 0.00
7:55 am 07:55 Clear 35 1.9 29 -1.5 78 78 W 3 6 30.45 1031 10 16 0.00 0.00
8:15 am 08:15 Sunny 35 1.5 30 -1 84 84 WNW 5 7 30.45 1031 10 16 0.00 0.00
8:35 am 08:35 Sunny 38 3.2 31 -0.4 78 78 W 3 6 30.42 1030 10 16 0.00 0.00
8:55 am 08:55 Sunny 39 4 32 0 75 75 Calm 30.45 1031 7 11 0.00 0.00
9:15 am 09:15 Sunny 42 5.6 34 0.9 72 72 Calm 30.45 1031 10 16 0.00 0.00
9:35 am 09:35 Sunny 45 7.4 36 2 69 69 Calm 30.42 1030 10 16 0.00 0.00
9:55 am 09:55 Sunny 48 9 36 2.4 64 64 W 3 6 30.42 1030 10 16 0.00 0.00
10:15 am 10:15 Sunny 52 11.2 38 3.2 58 58 WNW 3 6 30.39 1029 10 16 0.00 0.00
10:35 am 10:35 Sunny 56 13.1 38 3.6 53 53 WNW 7 11 30.36 1028 10 16 0.00 0.00
10:55 am 10:55 Sunny 59 14.9 40 4.2 49 49 WNW 7 11 30.36 1028 10 16 0.00 0.00
11:15 am 11:15 Sunny 62 16.8 39 4.1 43 43 NW 7 11 30.33 1027 10 16 0.00 0.00
11:35 am 11:35 Sunny 65 18.2 38 3.6 38 38 NW 7 11 30.33 1027 10 16 0.00 0.00
11:55 am 11:55 Sunny 67 19.2 37 2.9 34 34 WNW 8 13 30.33 1027 10 16 0.00 0.00
12:15 pm 12:15 Sunny 68 20 37 2.7 32 32 WNW 9 15 30.30 1026 10 16 0.00 0.00
12:35 pm 12:35 Sunny 70 21 37 3 31 31 WNW 8 13 30.30 1026 10 16 0.00 0.00
12:55 pm 12:55 Sunny 71 21.4 37 2.6 29 29 WNW 10 17 30.30 1026 10 16 0.00 0.00
1:15 pm 13:15 Sunny 71 21.7 37 2.5 28 28 WNW 7 11 30.27 1025 10 16 0.00 0.00
1:35 pm 13:35 Sunny 72 22.2 36 2.3 27 27 W 8 13 30.27 1025 10 16 0.00 0.00
1:55 pm 13:55 Sunny 72 22.4 37 2.6 27 27 W 9 15 30.27 1025 10 16 0.00 0.00
2:15 pm 14:15 Sunny 73 22.5 36 2.2 26 26 W 9 15 30.27 1025 10 16 0.00 0.00
2:35 pm 14:35 Sunny 73 22.6 35 1.5 25 25 W 8 13 30.27 1025 10 16 0.00 0.00
2:55 pm 14:55 Sunny 73 22.8 34 1.1 24 24 W 8 13 30.27 1025 10 16 0.00 0.00
3:15 pm 15:15 Sunny 73 23 32 0.2 22 22 WNW 6 9 30.24 1024 10 16 0.00 0.00
3:35 pm 15:35 Sunny 74 23.3 32 0.2 22 22 WNW 8 13 30.21 1023 10 16 0.00 0.00
3:55 pm 15:55 Sunny 74 23.4 32 0 21 21 W 6 9 30.21 1023 10 16 0.00 0.00
4:15 pm 16:15 Sunny 74 23.2 32 0.2 22 22 W 10 17 30.21 1023 10 16 0.00 0.00
4:35 pm 16:35 Sunny 73 23 32 0 22 22 W 9 15 30.21 1023 10 16 0.00 0.00
4:55 pm 16:55 Sunny 73 23 32 0 22 22 W 9 15 30.21 1023 10 16 0.00 0.00
5:15 pm 17:15 Sunny 73 23 32 0 22 22 WNW 6 9 30.21 1023 10 16 0.00 0.00
5:35 pm 17:35 Sunny 73 22.5 32 0 22 22 WNW 7 11 30.21 1023 10 16 0.00 0.00
5:55 pm 17:55 Sunny 71 21.7 32 0 24 24 WNW 3 6 30.24 1024 10 16 0.00 0.00
6:15 pm 18:15 Sunny 68 20.2 32 0 26 26 W 3 6 30.24 1024 10 16 0.00 0.00
6:35 pm 18:35 Clear 67 19.2 32 0.1 28 28 SSW 3 6 30.24 1024 10 16 0.00 0.00
6:55 pm 18:55 Clear 65 18.3 32 0.2 30 30 Calm 30.27 1025 10 16 0.00 0.00
7:15 pm 19:15 Clear 62 16.7 33 0.4 33 33 Calm 30.30 1026 10 16 0.00 0.00
7:35 pm 19:35 Clear 59 14.9 32 0.1 37 37 Calm 30.33 1027 10 16 0.00 0.00
7:55 pm 19:55 Clear 56 13.3 33 0.5 42 42 Calm 30.33 1027 10 16 0.00 0.00
8:15 pm 20:15 Clear 56 13.6 33 0.6 41 41 Calm 30.33 1027 10 16 0.00 0.00
8:35 pm 20:35 Clear 52 11 32 0.1 47 47 Calm 30.36 1028 10 16 0.00 0.00
8:55 pm 20:55 Clear 49 9.7 32 0.2 52 52 Calm 30.36 1028 7 11 0.00 0.00
9:15 pm 21:15 Clear 51 10.7 33 0.8 51 51 Calm 30.36 1028 10 16 0.00 0.00
9:35 pm 21:35 Clear 50 10.1 32 0.2 51 51 Calm 30.36 1028 7 11 0.00 0.00
9:55 pm 21:55 Clear 47 8.5 31 -0.3 54 54 Calm 30.39 1029 7 11 0.00 0.00
10:15 pm 22:15 Clear 47 8.5 32 0 55 55 Calm 30.39 1029 10 16 0.00 0.00
10:35 pm 22:35 Clear 46 7.8 32 0 58 58 Calm 30.39 1029 10 16 0.00 0.00
10:55 pm 22:55 Clear 45 7.4 31 -0.7 57 57 Calm 30.39 1029 7 11 0.00 0.00
11:15 pm 23:15 Clear 45 7.3 31 -0.4 58 58 Calm 30.39 1029 7 11 0.00 0.00
11:35 pm 23:35 Clear 47 8.3 32 0 56 56 SW 3 6 30.42 1030 10 16 0.00 0.00
11:55 pm 23:55 Clear 43 6.2 31 -0.3 63 63 Calm 30.42 1030 10 16 0.00 0.00

Powered by AerisWeather